57P/du Toit-Neujmin-Delporte (2008)

Japanese version
Home page
Total 5,708 html files since Dec. 4, 1995
Updated on May 6, 2008

---------------------------------------------------------------------

* Profile

* Orbital Elements

Perturbed ephemeris below is based on elements from MPC 45964. 

 Epoch = 2454840.50000 TT   T = 2454826.45763 TT
 Peri. =  115.30078         a =     3.4493975 AU
 Node  =  188.82966 J2000.0 e =     0.5002497
 Incl. =    2.84811         q =     1.7238374 AU

* Finding Charts

* Magnitudes Graph

        m1 = 9.7 + 5 log d + 20.0 log r

---------------------------------------------------------------------

The orbital elements are calculated using the Minor Planet & Comet Ephemeris Service.
The charts are made with StellaNavigator Ver.8 (AstroArts).
The magnitudes graphs are made with Comet for Windows.

---------------------------------------------------------------------

Copyright(C) 1995-2007 Seiichi Yoshida (comet@aerith.net). All rights reserved.